Date String (YYYY-MM-DD hh:mm:ss) UTC,Instrument flags,Ambient pressure (hPa),Sample flow (lpm),Bypass flow (lpm),Sample temperature (°C),Ambient temperature (°C),ASC tube jacket temperature (°C),LED temperature (°C),Box temperature (°C),Sample RH (%),Span deviation,Mass concentration (μg/m³),Mass concentration (μg/m³),Mass concentration (μg/m³)
DateTimeUTC,F1_M11,P_M11,Q1_M11,Q2_M11,T1_M11,T2_M11,T3_M11,T4_M11,T5_M11,U1_M11,ZSPAN_M11,X0_M11,X2_M11,X1_M11
2023-04-11 00:00:00,,0835.8,5.00,0.00,30.7,29.4,00.0,39.1,32.2,08.4,0000.0,0014.63,0004.12,0002.12
2023-04-11 00:01:00,,0835.8,5.00,0.00,30.7,29.4,00.0,39.1,32.2,08.5,0000.0,0014.74,0004.12,0002.12
2023-04-11 00:02:00,,0835.8,4.99,0.00,30.8,29.4,00.0,39.1,32.2,08.3,0000.0,0014.13,0004.07,0002.09
2023-04-11 00:03:00,,0835.8,5.00,0.00,30.8,29.4,00.0,39.1,32.2,08.2,0000.0,0014.72,0004.02,0002.08
2023-04-11 00:04:00,,0835.8,5.00,0.00,30.8,29.4,00.0,39.1,32.2,08.3,0000.0,0015.44,0004.03,0002.06
2023-04-11 00:05:00,,0835.8,4.99,0.00,30.8,29.4,00.0,39.1,32.2,08.3,0000.0,0014.75,0004.03,0002.06
2023-04-11 00:06:00,,0835.8,5.00,0.00,30.8,29.4,00.0,39.1,32.2,08.3,0000.0,0015.18,0004.03,0002.05
2023-04-11 00:07:00,,0835.8,5.01,0.00,30.8,29.4,00.0,39.1,32.2,08.3,0000.0,0017.11,0004.07,0002.04
2023-04-11 00:08:00,,0835.8,5.00,0.00,30.8,29.4,00.0,39.2,32.2,08.4,0000.0,0016.94,0004.04,0002.04
2023-04-11 00:09:00,,0835.8,5.00,0.00,30.8,29.4,00.0,39.2,32.2,08.4,0000.0,0017.18,0004.13,0002.04
2023-04-11 00:10:00,,0835.8,5.00,0.00,30.8,29.5,00.0,39.2,32.3,08.2,0000.0,0017.07,0004.09,0002.05
2023-04-11 00:11:00,,0835.8,5.01,0.00,30.8,29.5,00.0,39.2,32.3,08.2,0000.0,0016.62,0004.05,0002.03
2023-04-11 00:12:00,,0835.8,4.99,0.00,30.8,29.5,00.0,39.2,32.3,08.5,0000.0,0016.44,0004.02,0002.02
2023-04-11 00:13:00,,0835.8,4.99,0.00,30.8,29.5,00.0,39.2,32.3,08.6,0000.0,0016.94,0004.07,0002.02
2023-04-11 00:14:00,,0835.8,4.99,0.00,30.8,29.5,00.0,39.2,32.3,08.6,0000.0,0017.31,0004.10,0002.01
2023-04-11 00:15:00,,0835.7,5.01,0.00,30.9,29.6,00.0,39.2,32.3,08.6,0000.0,0016.75,0004.14,0002.02
2023-04-11 00:16:00,,0835.7,5.00,0.00,30.9,29.6,00.0,39.2,32.3,08.4,0000.0,0017.10,0004.13,0002.01
2023-04-11 00:17:00,,0835.8,5.01,0.00,30.9,29.6,00.0,39.2,32.3,08.3,0000.0,0017.15,0004.06,0001.98
2023-04-11 00:18:00,,0835.8,5.00,0.00,30.9,29.6,00.0,39.2,32.3,08.3,0000.0,0015.43,0003.98,0001.98
2023-04-11 00:19:00,,0835.8,5.00,0.00,30.9,29.6,00.0,39.3,32.4,08.5,0000.0,0015.75,0004.02,0001.97
2023-04-11 00:20:00,,0835.8,4.99,0.00,30.9,29.6,00.0,39.3,32.4,08.4,0000.0,0015.97,0003.95,0001.96
2023-04-11 00:21:00,,0835.8,5.00,0.00,30.9,29.6,00.0,39.3,32.4,08.3,0000.0,0014.92,0003.92,0001.94
2023-04-11 00:22:00,,0835.8,4.98,0.00,30.9,29.6,00.0,39.3,32.3,08.3,0000.0,0014.75,0003.95,0001.95
2023-04-11 00:23:00,,0835.8,4.99,0.00,30.9,29.6,00.0,39.3,32.4,08.4,0000.0,0015.53,0003.95,0001.93
2023-04-11 00:24:00,,0835.8,5.01,0.00,30.9,29.6,00.0,39.3,32.4,08.3,0000.0,0015.95,0003.94,0001.91
2023-04-11 00:25:00,,0835.8,5.01,0.00,31.0,29.6,00.0,39.3,32.4,08.5,0000.0,0017.36,0003.99,0001.91
2023-04-11 00:26:00,,0835.8,5.01,0.00,31.0,29.6,00.0,39.3,32.4,08.4,0000.0,0017.51,0003.94,0001.89
2023-04-11 00:27:00,,0835.8,5.00,0.00,31.0,29.6,00.0,39.3,32.4,08.5,0000.0,0018.16,0003.91,0001.89
2023-04-11 00:28:00,,0835.8,5.00,0.00,31.0,29.7,00.0,39.3,32.4,08.6,0000.0,0018.80,0003.93,0001.91
2023-04-11 00:29:00,,0835.9,5.00,0.00,31.0,29.7,00.0,39.3,32.4,08.6,0000.0,0018.65,0003.93,0001.91
2023-04-11 00:30:00,,0835.8,5.00,0.00,31.0,29.7,00.0,39.4,32.4,08.6,0000.0,0018.36,0003.89,0001.89
2023-04-11 00:31:00,,0835.8,5.00,0.00,31.0,29.7,00.0,39.4,32.5,08.8,0000.0,0018.01,0003.86,0001.88
2023-04-11 00:32:00,,0835.8,5.00,0.00,31.0,29.6,00.0,39.4,32.5,09.0,0000.0,0018.72,0003.90,0001.86
2023-04-11 00:33:00,,0835.8,5.00,0.00,31.0,29.6,00.0,39.4,32.5,09.0,0000.0,0019.24,0003.88,0001.85
2023-04-11 00:34:00,,0835.8,5.00,0.00,31.0,29.7,00.0,39.4,32.4,08.7,0000.0,0018.59,0003.85,0001.85
2023-04-11 00:35:00,,0835.8,5.00,0.00,31.0,29.7,00.0,39.4,32.5,08.9,0000.0,0019.14,0003.89,0001.87
2023-04-11 00:36:00,,0835.8,5.00,0.00,31.1,29.6,00.0,39.4,32.5,08.8,0000.0,0018.03,0003.84,0001.86
2023-04-11 00:37:00,,0835.9,5.00,0.00,31.1,29.3,00.0,39.3,32.6,08.7,0000.0,0016.69,0003.78,0001.85
2023-04-11 00:38:00,,0835.9,5.00,0.00,31.1,29.1,00.0,39.2,32.7,08.8,0000.0,0017.78,0003.80,0001.84
2023-04-11 00:39:00,,0835.9,5.01,0.00,31.1,29.0,00.0,39.2,32.7,08.7,0000.0,0017.48,0003.85,0001.82
2023-04-11 00:40:00,,0835.8,4.99,0.00,31.1,28.2,00.0,39.2,32.5,08.8,0000.0,0017.54,0003.86,0001.83
2023-04-11 00:41:00,,0835.8,5.00,0.00,31.0,26.3,00.0,39.1,32.0,09.0,0000.0,0017.68,0003.92,0001.84
2023-04-11 00:42:00,,0835.8,5.00,0.00,30.9,25.6,00.0,39.0,31.9,09.1,0000.0,0018.37,0003.96,0001.85
2023-04-11 00:43:00,,0835.8,5.01,0.00,30.7,25.8,00.0,39.0,31.7,09.1,0000.0,0018.56,0003.95,0001.85
2023-04-11 00:44:00,,0835.8,5.00,0.00,30.6,26.2,00.0,39.0,31.7,09.1,0000.0,0018.41,0003.92,0001.84
2023-04-11 00:45:00,,0835.8,5.00,0.00,30.6,26.7,00.0,39.0,31.7,08.9,0000.0,0019.23,0003.94,0001.84
2023-04-11 00:46:00,,0835.8,5.00,0.00,30.5,27.1,00.0,39.0,31.8,09.0,0000.0,0018.63,0003.90,0001.85
2023-04-11 00:47:00,,0835.8,4.99,0.00,30.5,27.4,00.0,39.0,31.8,08.7,0000.0,0018.18,0003.93,0001.87
2023-04-11 00:48:00,,0835.8,5.00,0.00,30.5,27.7,00.0,39.0,31.8,08.6,0000.0,0019.21,0004.00,0001.87
2023-04-11 00:49:00,,0835.9,5.00,0.00,30.5,28.0,00.0,39.0,31.8,08.7,0000.0,0017.92,0004.00,0001.87
2023-04-11 00:50:00,,0835.9,5.00,0.00,30.5,28.2,00.0,38.9,31.9,08.8,0000.0,0017.87,0003.98,0001.88
2023-04-11 00:51:00,,0835.9,5.00,0.00,30.5,28.4,00.0,38.9,31.9,08.9,0000.0,0018.46,0003.97,0001.88
2023-04-11 00:52:00,,0835.8,5.00,0.00,30.5,28.5,00.0,38.9,31.9,09.0,0000.0,0020.23,0003.94,0001.86
2023-04-11 00:53:00,,0835.9,5.00,0.00,30.5,28.6,00.0,38.9,31.9,09.2,0000.0,0020.36,0003.99,0001.86
2023-04-11 00:54:00,,0835.9,5.00,0.00,30.5,28.7,00.0,38.9,31.9,09.2,0000.0,0020.45,0004.01,0001.86
2023-04-11 00:55:00,,0835.9,5.00,0.00,30.5,28.8,00.0,38.9,32.0,09.2,0000.0,0021.41,0004.09,0001.90
2023-04-11 00:56:00,,0835.8,5.00,0.00,30.5,28.9,00.0,38.9,32.0,09.1,0000.0,0021.04,0004.15,0001.88
2023-04-11 00:57:00,,0835.9,4.99,0.00,30.5,29.0,00.0,38.9,32.0,09.2,0000.0,0021.77,0004.12,0001.87
2023-04-11 00:58:00,,0835.9,4.98,0.00,30.5,29.0,00.0,38.9,32.0,09.1,0000.0,0022.28,0004.15,0001.86
2023-04-11 00:59:00,,0835.9,4.99,0.00,30.5,29.1,00.0,38.9,32.0,09.0,0000.0,0021.88,0004.10,0001.84
